Regional Weather Roundup
Issued by NWS Cleveland, OH

Home | Current Version | Previous Version | Graphics & Text | Print | Product List | Glossary On
Versions: 1 2 3 4 5 6 7 8 9 10 11 12 13 14 15 16 17 18 19 20 21 22 23 24 25 26 27 28 29 30 31 32 33 34 35 36 37 38 39 40 41 42 43 44 45 46 47 48 49 50
637
ASUS41 KCLE 222102
RWRCLE
OHIO REGIONAL WEATHER ROUNDUP
NATIONAL WEATHER SERVICE CLEVELAND, OH
400 PM EST SUN JAN 22 2017

NOTE: "FAIR" INDICATES FEW OR NO CLOUDS BELOW 12,000 FEET WITH NO
SIGNIFICANT WEATHER AND/OR OBSTRUCTIONS TO VISIBILITY.

OHZ001>008-015>018-024>027-034-035-043-044-222200-
   NORTHWEST OHIO

CITY           SKY/WX    TMP DP  RH WIND       PRES   REMARKS
DEFIANCE       MOSUNNY   56  49  77 N10       29.54F
FINDLAY        PTSUNNY   62  48  60 NE8       29.52R
TOLEDO EXPRESS MOSUNNY   56  52  86 N9        29.55S
TOLEDO EXEC    CLOUDY    45  44  97 NE7       29.58S FOG
LIMA           PTSUNNY   61  52  72 NE8       29.52R
$$

OHZ009>014-019>023-028>033-038-089-222200-
   NORTHEAST OHIO

CITY           SKY/WX    TMP DP  RH WIND       PRES   REMARKS
CLE-HOPKINS    CLOUDY    56  48  74 NE10      29.58S
CLE-LAKEFRONT  CLOUDY    39  36  89 NE10      29.56S
CUY CO. ARPT   PTSUNNY   59  52  77 NE8       29.57S
LORAIN-ELYRIA  CLOUDY    55  48  77 NE13      29.56R
ASHTABULA      CLOUDY    53  47  79 N6        29.59S
AKRON-CANTON   CLOUDY    59  48  67 NE8       29.55S
WOOSTER        MOSUNNY   58  50  75 E9        29.55S
MANSFIELD      PTSUNNY   61  49  64 NE10      29.54R
YOUNGSTOWN     PTSUNNY   56  49  77 NE8       29.57F
$$

OHZ042-051>053-060>062-070>072-077>081-222200-
  SOUTHWEST OHIO

CITY           SKY/WX    TMP DP  RH WIND       PRES   REMARKS
CINC-COVINGTON CLOUDY    61  51  70 NE10      29.44S
CINC-LUNKEN    CLOUDY    62  51  67 NE7       29.45S
HAMILTON       PTSUNNY   63  50  62 NE14      29.46S
DAYTON         CLOUDY    61  48  62 NE10      29.50R
WRIGHT-PAT AFB MOSUNNY   62  48  61 NE12      29.48R
DAYTON GENERAL MOSUNNY   61  47  59 NE14      29.46S
WILMINGTON     CLOUDY    59  50  72 NE9       29.45F
$$

OHZ036-037-039>041-045>050-054>059-063>069-073>076-082>088-222200-
  CENTRAL AND SOUTHEAST OHIO

CITY           SKY/WX    TMP DP  RH WIND       PRES   REMARKS
COLUMBUS       CLOUDY    63  47  55 NE12      29.49R
OSU AIRPORT    CLOUDY    62  47  57 E9        29.49R
BOLTON FIELD   PTSUNNY   63  46  55 E8        29.49S
RICKENBACK AFB   N/A     61  49  66 NE12      29.48S
NEWARK         CLOUDY    63  46  54 E14       29.49S
MARION           N/A     62  46  55 E9        29.53R
LANCASTER      CLOUDY    63  48  58 NE10      29.48S
ZANESVILLE     CLOUDY    64  47  53 NE8       29.50R
NEW PHILLY     NOT AVBL
$$




USA.gov is the U.S. government's official web portal to all federal, state and local government web resources and services.